Flag for USA

Past Weather in Wichita, Kansas, USA — Yesterday and Last 2 Weeks

Now
67 °F

Sunny.


Feels Like: 67 °F
Forecast: 80 / 54 °F
Wind: 5 mph from Southeast

Location: Wichita Eisenhower National Airport
Current Time: Sep 18, 2020 at 11:37:12 am
Latest Report: Sep 18, 2020 at 10:53 am
Visibility: 10 mi
Pressure30.27 "Hg
Humidity: 66%
Dew Point: 55 °F
Location of WichitaLocation

Past Weather in Wichita — Graph

°F

Wichita Temperature Yesterday

Maximum temperature yesterday: 80 °F (at 3:53 pm)
Minimum temperature yesterday: 58 °F (at 6:53 am)
Average temperature yesterday: 69 °F

High & Low Weather Summary for the Past Weeks

 TemperatureHumidityPressure
High97 °F (Sep 6, 3:53 pm)100% (Sep 12, 1:53 am)30.33 "Hg (Sep 12, 1:53 am)
Low47 °F (Sep 9, 12:53 am)30% (Sep 7, 2:53 pm)29.60 "Hg (Sep 7, 5:53 pm)
Average67 °F75%30.08 "Hg
* Reported Sep 3 9:53 am — Sep 18 9:53 am, Wichita. Weather by CustomWeather, © 2020

Note: Actual official high and low records may vary slightly from our data, if they occured in-between our weather recording intervals... More about our weather records

Wichita Weather History for the Previous 24 Hours

Scroll right to see more
 ConditionsComfort  
Time TempWeatherWind HumidityBarometerVisibility
9:53 am
Fri, Sep 18
63 °FSunny.7 mph73%30.27 "Hg10 mi
8:53 am58 °FSunny.9 mph84%30.26 "Hg10 mi
7:53 am56 °FPassing clouds.5 mph87%30.24 "Hg10 mi
6:53 am55 °FPassing clouds.6 mph90%30.21 "Hg10 mi
5:53 am54 °FPassing clouds.6 mph90%30.19 "Hg10 mi
4:53 am56 °FPassing clouds.5 mph84%30.17 "Hg10 mi
3:53 am59 °FPassing clouds.5 mph78%30.16 "Hg10 mi
2:53 am59 °FPassing clouds.7 mph78%30.16 "Hg10 mi
1:53 am59 °FClear.7 mph81%30.16 "Hg10 mi
12:53 am61 °FPassing clouds.8 mph75%30.15 "Hg10 mi
11:53 pm
Thu, Sep 17
63 °FPassing clouds.9 mph70%30.15 "Hg10 mi
10:53 pm64 °FPassing clouds.9 mph68%30.14 "Hg8 mi
9:53 pm66 °FPassing clouds.7 mph65%30.14 "Hg8 mi
8:53 pm69 °FPassing clouds.7 mph61%30.12 "Hg8 mi
7:53 pm70 °FPassing clouds.6 mph57%30.09 "Hg10 mi
6:53 pm74 °FScattered clouds.8 mph50%30.09 "Hg10 mi
5:53 pm77 °FPartly sunny.10 mph44%30.08 "Hg9 mi
4:53 pm79 °FPartly sunny.10 mph42%30.08 "Hg7 mi
3:53 pm80 °FPartly sunny.8 mph51%30.09 "Hg8 mi
2:53 pm79 °FScattered clouds.8 mph56%30.10 "Hg8 mi
1:53 pm78 °FScattered clouds.8 mph58%30.13 "Hg8 mi
12:53 pm76 °FScattered clouds.8 mph60%30.14 "Hg7 mi
11:53 am74 °FScattered clouds.8 mph64%30.16 "Hg7 mi
Weather by CustomWeather, © 2020

See weather overview